Time,TemperatureF,DewpointF,PressureIn,WindDirection,WindDirectionDegrees,WindSpeedMPH,WindSpeedGustMPH,Humidity,HourlyPrecipIn,Conditions,Clouds,dailyrainin,SoftwareType,DateUTC
2013-08-18 02:21:00,49.0,38.0,-100.00,ESE,119,3.0,3.0,66,0.00,,,-99.99,,2013-08-18 08:21:00,
2013-08-18 03:53:00,48.0,40.0,-100.00,ESE,122,4.0,6.0,73,0.00,,,-99.99,,2013-08-18 09:53:00,
2013-08-18 04:22:00,48.0,40.0,-100.00,ESE,115,5.0,7.0,73,0.00,,,-99.99,,2013-08-18 10:22:00,
2013-08-18 04:52:00,47.0,39.0,-100.00,ESE,116,3.0,5.0,75,0.00,,,-99.99,,2013-08-18 10:52:00,
2013-08-18 05:22:00,46.0,37.0,-100.00,ESE,123,4.0,5.0,72,0.00,,,-99.99,,2013-08-18 11:22:00,
2013-08-18 05:52:00,46.0,39.0,-100.00,ESE,113,5.0,7.0,76,0.00,,,-99.99,,2013-08-18 11:52:00,
2013-08-18 06:21:00,46.0,39.0,-100.00,ESE,114,4.0,5.0,77,0.00,,,-99.99,,2013-08-18 12:21:00,
2013-08-18 06:52:00,45.0,40.0,-100.00,ESE,112,5.0,6.0,83,0.00,,,-99.99,,2013-08-18 12:52:00,
2013-08-18 07:21:00,45.0,40.0,-100.00,ESE,119,5.0,7.0,81,0.00,,,-99.99,,2013-08-18 13:21:00,
2013-08-18 09:22:00,61.0,44.0,-100.00,SE,131,3.0,4.0,54,0.00,,,-99.99,,2013-08-18 15:22:00,
2013-08-18 09:51:00,68.0,46.0,-100.00,ESE,123,2.0,3.0,45,0.00,,,-99.99,,2013-08-18 15:51:00,
2013-08-18 09:54:00,60.0,44.0,-100.00,SE,127,4.0,5.0,56,0.00,,,-99.99,,2013-08-18 15:54:00,
2013-08-18 10:23:00,68.0,46.0,-100.00,ESE,123,2.0,3.0,45,0.00,,,-99.99,,2013-08-18 16:23:00,
2013-08-18 10:33:00,68.0,46.0,-100.00,ESE,123,2.0,3.0,45,0.00,,,-99.99,,2013-08-18 16:33:00,
2013-08-18 11:13:00,76.0,46.0,-100.00,NNW,332,5.0,9.0,34,0.00,,,-99.99,,2013-08-18 17:13:00,
2013-08-18 11:23:00,76.0,46.0,-100.00,NNW,332,5.0,9.0,34,0.00,,,-99.99,,2013-08-18 17:23:00,
2013-08-18 16:23:00,56.0,48.0,-100.00,South,182,3.0,4.0,75,0.00,,,-99.99,,2013-08-18 22:23:00,
2013-08-18 16:52:00,54.0,51.0,-100.00,South,187,4.0,8.0,90,0.00,,,-99.99,,2013-08-18 22:52:00,
2013-08-18 17:52:00,52.0,52.0,-100.00,SE,145,5.0,9.0,99,0.01,,,-99.99,,2013-08-18 23:52:00,
2013-08-18 18:52:00,55.0,52.0,-100.00,SSE,165,6.0,8.0,90,0.00,,,-99.99,,2013-08-19 00:52:00,
2013-08-18 19:22:00,55.0,52.0,-100.00,SE,132,5.0,6.0,88,0.00,,,-99.99,,2013-08-19 01:22:00,
2013-08-18 19:52:00,55.0,52.0,-100.00,SE,126,6.0,8.0,89,0.00,,,-99.99,,2013-08-19 01:52:00,
2013-08-18 20:21:00,53.0,51.0,-100.00,SSE,154,3.0,6.0,93,0.00,,,-99.99,,2013-08-19 02:21:00,
2013-08-18 20:52:00,53.0,50.0,-100.00,SE,142,4.0,6.0,90,0.00,,,-99.99,,2013-08-19 02:52:00,
2013-08-18 21:21:00,52.0,51.0,-100.00,SE,133,4.0,6.0,97,0.00,,,-99.99,,2013-08-19 03:21:00,
2013-08-18 21:53:00,49.0,48.0,-100.00,ESE,123,3.0,4.0,95,0.00,,,-99.99,,2013-08-19 03:53:00,
2013-08-18 22:03:00,49.0,48.0,-100.00,ESE,123,3.0,4.0,95,0.00,,,-99.99,,2013-08-19 04:03:00,
2013-08-18 22:12:00,49.0,48.0,-100.00,ESE,123,3.0,4.0,95,0.00,,,-99.99,,2013-08-19 04:12:00,
2013-08-18 22:23:00,49.0,49.0,-100.00,SE,138,3.0,4.0,99,0.00,,,-99.99,,2013-08-19 04:23:00,
2013-08-18 22:53:00,47.0,46.0,-100.00,ESE,112,5.0,7.0,95,0.00,,,-99.99,,2013-08-19 04:53:00,
2013-08-18 23:22:00,46.0,46.0,-100.00,ESE,119,3.0,6.0,99,0.00,,,-99.99,,2013-08-19 05:22:00,
2013-08-18 23:52:00,46.0,45.0,-100.00,ESE,122,4.0,5.0,98,0.00,,,-99.99,,2013-08-19 05:52:00,